Regional Weather Roundup
Issued by NWS

Home | Current Version | Previous Version | Graphics & Text | Print | Product List | Glossary On
Versions: 1 2 3 4 5 6 7 8 9 10 11 12 13 14 15 16 17 18 19 20 21 22 23 24 25 26 27 28 29 30 31 32 33 34 35 36 37 38 39 40 41 42 43 44 45 46 47 48 49 50
000
ASUS43 KTOP 270759
RWRKS

WEATHER ROUNDUP FOR KANSAS
NATIONAL WEATHER SERVICE GOODLAND KS
300 AM CDT FRI MAY 27 2016

NOTE:  "FAIR" INDICATES FEW OR NO CLOUDS BELOW 12,000 FEET WITH NO
SIGNIFICANT WEATHER AND/OR OBSTRUCTIONS TO VISIBILITY.

KSZ001>006-013>018-027>032-041>047-270900-
NORTHWEST KANSAS

CITY           SKY/WX    TMP DP  RH WIND       PRES   REMARKS
GOODLAND       CLOUDY    50  48  93 SE8       29.76F
HAYS           CLOUDY    28 N/A N/A E16       29.70F WCI  17
HILL CITY      CLOUDY    58  56  93 SE12      29.72F
RUSSELL        CLOUDY    57  56  96 E17       29.70F
$$

KSZ061>065-074>080-084>089-270900-
SOUTHWEST KANSAS

CITY           SKY/WX    TMP DP  RH WIND       PRES   REMARKS
DODGE CITY     CLOUDY    57  55  93 NE10      29.67F
ELKHART          N/A     49  39  68 NW12        N/A
GARDEN CITY    CLEAR     49  46  90 NW12      29.69F
GREAT BEND     CLOUDY    59  52  77 E10       29.70F
LIBERAL        CLEAR     52  39  62 NW13      29.71F
$$

KSZ066>073-081>083-090>101-270900-
SOUTHEAST KANSAS

CITY           SKY/WX    TMP DP  RH WIND       PRES   REMARKS
CHANUTE        LGT RAIN  60  57  89 N14G24    29.79F
COFFEYVILLE    CLOUDY    68  65  90 E6        29.78F
HUTCHINSON     CLOUDY    60  58  92 NW10      29.72R
MEDICINE LODGE   N/A     64  59  83 E10       29.70S
NEWTON         MOCLDY    57  54  88 NE10G20   29.70R
PARSONS        LGT RAIN  60  58  92 MISG      29.83R
WICHITA INTL   CLOUDY    61  58  90 E9        29.71R
WICHITA JABRA  CLOUDY    59  58  96 E12       29.71R
WINFIELD       CLOUDY    63  60  90 E12       29.73S
$$

KSZ007>012-019>026-033>040-048>060-102>105-270900-
NORTHEAST KANSAS

CITY           SKY/WX    TMP DP  RH WIND       PRES   REMARKS
CONCORDIA      CLOUDY    59  56  89 SE13G21   29.70F
EMPORIA        HVY RAIN  58  57  97 NE18G28   29.72F
LAWRENCE       LGT RAIN  61  60  97 NW20G29   29.81F
MANHATTAN      LGT RAIN  61  59  93 E5        29.80F
OLATHE IND     HVY RAIN  61  60  97 W17G31    29.82R VSB 1
OLATHE EXE     LGT RAIN  62  61  96 S9        29.79F
SALINA         MOCLDY    61  58  90 E10G23    29.72F
TOPEKA BILLARD RAIN      61  60  97 W8        29.82F FOG
TOPEKA FORBES  LGT RAIN  62  60  93 NW12      29.81F
$$




USA.gov is the U.S. government's official web portal to all federal, state and local government web resources and services.